Regional Weather Roundup
Issued by NWS

Home | Current Version | Previous Version | Text Only | Print | Product List | Glossary On
Versions: 1 2 3 4 5 6 7 8 9 10 11 12 13 14 15 16 17 18 19 20 21 22 23 24 25 26 27 28 29 30 31 32 33 34 35 36 37 38 39 40 41 42 43 44 45 46 47 48 49 50
518
ASUS43 KMPX 221901
RWRMN
WEATHER ROUNDUP FOR MINNESOTA
NATIONAL WEATHER SERVICE TWIN CITIES/CHANHASSEN MN
100 PM CST MON JAN 22 2018


NOTE: "FAIR" INDICATES FEW OR NO CLOUDS BELOW 12,000 FEET WITH NO
SIGNIFICANT WEATHER AND/OR OBSTRUCTIONS TO VISIBILITY. N/A MEANS
CURRENT SKY AND/OR WEATHER CONDITIONS ARE NOT AVAILABLE.

MNZ060>063-068>070-222000-
   Twin Cities Metro

CITY           SKY/WX    TMP DP  RH WIND       PRES   REMARKS
TWIN CITIES    HVY SNOW  30  29  96 N25G35    29.65F VSB 1/4 WCI  16
ST PAUL        HVY SNOW  30  29  96 N20G33    29.67F VSB 1/4 WCI  17
CRYSTAL        SNOW      29  25  85 N15G24    29.68F VSB 1/2 WCI  18
BLAINE         SNOW      30  30 100 N21G31    29.70F VSB 1/2 WCI  17
LAKEVILLE        N/A     28  28 100 N17G29    29.63R WCI  16
EDEN PRAIRIE   SNOW      30  27  88 N18G32    29.63F VSB 1/4 WCI  18
SOUTH ST PAUL  LGT SNOW  31  30  97 N15G26    29.63F VSB 1   WCI  20
LAKE ELMO      SNOW      32  30  93 N15G28    29.65F VSB 1/2 WCI  22
$$
MNZ001>005-007-008-013>017-022>024-027-028-222000-
   Northwest Minnesota

CITY           SKY/WX    TMP DP  RH WIND       PRES   REMARKS
BEMIDJI        CLOUDY    24  22  91 NE13G20   29.94F WCI  13
HALLOCK        CLOUDY    27  21  80 NE8       30.07F WCI  18
ROSEAU         CLOUDY    25  19  80 NE9       30.05F WCI  15
WARROAD        CLOUDY    21  19  93 N9        30.05F WCI  11
CROOKSTON      FAIR      27  21  80 NE12      30.02F WCI  16
FOSSTON        CLOUDY    23  19  86 NE12G21   29.97F WCI  12
DETROIT LAKES  CLOUDY    28  27  93 NE14      29.91F WCI  17
MOORHEAD       CLOUDY    27  23  86 N17       29.96F WCI  14
PARK RAPIDS    CLOUDY    27  21  78 NE10G22   29.89F WCI  17
MAHNOMEN       CLOUDY    26  22  87 NE15      29.94F WCI  13
$$
MNZ006-009>011-018-025>026-222000-
   North Central Minnesota

CITY           SKY/WX    TMP DP  RH WIND       PRES   REMARKS
BAUDETTE       CLOUDY    23  19  85 NE7       30.01F WCI  15
FLAG ISLAND    CLOUDY    19  16  86 N12       30.06F WCI   7
INTL FALLS     CLOUDY    20  16  84 NE9       30.01F WCI   9
WASKISH        CLOUDY    25  23  93 NE9       29.99F WCI  15
BIG FORK       CLOUDY    23  19  86 NE7       29.95F WCI  15
LONGVILLE      CLOUDY    28  21  74 N6G16     29.90F WCI  22
GRAND RAPIDS   CLOUDY    25  21  85 NE10      29.92F WCI  15
CRANE LAKE     CLOUDY    19  14  79 N5        30.02F WCI  13
ORR            CLOUDY    21  16  79 CALM      29.95F
COOK           CLOUDY    21  19  93 NE5       29.95F WCI  15
WALKER         CLOUDY    26  21  83 NE10      29.92F WCI  16
$$
MNZ012-019>021-037-222000-
   Northeast Minnesota

CITY           SKY/WX    TMP DP  RH WIND       PRES   REMARKS
DULUTH         CLOUDY    23  21  92 NE15      29.88F WCI  10
HIBBING        CLOUDY    22  18  85 N13       29.91F WCI  10
EVELETH        CLOUDY    22  17  80 N10G16    29.92F WCI  12
DULUTH HARBOR  CLOUDY    27  25  93 NE30      29.92F WCI  10
TWO HARBORS    CLOUDY    27  21  80 NE8       29.90F WCI  18
SILVER BAY     CLOUDY    25  21  86 NE8       29.91F WCI  16
GRAND MARAIS     N/A     27  18  69 NE12      29.96F WCI  17
G MARAIS ARPRT CLOUDY    18  10  73 N13G18    29.90F WCI   4
$$
MNZ029>031-032-039>041-046>048-054>057-064-222000-
   West Central Minnesota

CITY           SKY/WX    TMP DP  RH WIND       PRES   REMARKS
FERGUS FALLS   CLOUDY    27  25  93 NE13G21   29.89F WCI  16
WHEATON        CLOUDY    28  23  80 N13G20    29.91F WCI  18
MORRIS         CLOUDY    28  25  86 N24G30    29.83F WCI  14
ALEXANDRIA     CLOUDY    28  23  81 NE20G31   29.82F WCI  15
ELBOW LAKE     CLOUDY    27  24  89 NE20G25   29.86F WCI  13
WADENA         CLOUDY    27  23  86 NE16G23   29.87F WCI  14
GLENWOOD       PTSUNNY   27  25  93 N24G32    29.79F WCI  12
APPLETON       CLOUDY    30  25  80 N28G33    29.81F WCI  16
BENSON           N/A     30  23  74 NE18G30   29.81F WCI  18
ORTONVILLE     CLOUDY    28  25  86 N21G30    29.84S WCI  15
MADISON        CLOUDY    32  27  80 N18G30    29.81F WCI  20
WILLMAR        CLOUDY    28  25  86 NE23G29   29.79S WCI  14
$$
MNZ033>034-036-042>043-049>051-058-059-222000-
   Central Minnesota

CITY           SKY/WX    TMP DP  RH WIND       PRES   REMARKS
ST CLOUD       CLOUDY    28  24  85 NE14G23   29.77F WCI  17
SAUK CENTRE      N/A     27  22  82 N22       29.80F WCI  13
PAYNESVILLE    CLOUDY    28  25  88 NE21G30   29.77F WCI  15
AITKIN         CLOUDY    25  21  86 NE14G20   29.85F WCI  13
PINE RIVER     CLOUDY    27  21  80 NE8G18    29.91F WCI  18
BRAINERD       CLOUDY    29  23  78 NE17      29.86F WCI  17
STAPLES        CLOUDY    27  21  80 NE10G16   29.86F WCI  17
LONG PRAIRIE   CLOUDY    28  23  80 N17G26    29.81F WCI  16
LITTLE FALLS   CLOUDY    28  21  74 N7        29.83F WCI  21
LITCHFIELD     CLOUDY    30  27  86 N22G31    29.73F WCI  17
BUFFALO        LGT SNOW  29  25  84 N22G28    29.73F WCI  16
MAPLE LAKE     CLOUDY    30  27  86 MISG      29.75F
HUTCHINSON     LGT SNOW  31  27  88 N13G25    29.71F WCI  21
$$
MNZ037-044-045-052-053-222000-
   East Central Minnesota

CITY           SKY/WX    TMP DP  RH WIND       PRES   REMARKS
PRINCETON      CLOUDY    30  25  80 N18G24    29.77F WCI  18
MORA           CLOUDY    28  23  80 NE10G21   29.82F WCI  19
CAMBRIDGE      CLOUDY    30  21  69 N13G24    29.77F WCI  20
RUSH CITY      CLOUDY    29  25  83 NE12G24   29.77F WCI  19
MOOSE LAKE     CLOUDY    27  23  86 NE14G22   29.84F FOG     WCI  15
HINCKLEY       CLOUDY    28  25  86 NE16G25   29.81F WCI  17
CLOQUET        CLOUDY    23  19  86 NE13G25   29.87F WCI  11
MCGREGOR       CLOUDY    28  23  80 NE7       29.87F WCI  21
$$
MNZ071>073-080-081-089-090-097-098-222000-
   Southwest Minnesota

CITY           SKY/WX    TMP DP  RH WIND       PRES   REMARKS
MONTEVIDEO     CLOUDY    28  25  86 NE24G30   29.79S WCI  14
GRANITE FALLS  CLOUDY    31  26  81 N22       29.79S WCI  18
CANBY          CLOUDY    29  27  92 N17G28    29.81S WCI  17
MARSHALL       CLOUDY    28  25  88 N20G25    29.77R WCI  15
REDWOOD FALLS  LGT SNOW  29  26  89 N15G21    29.74R FOG     WCI  18
OLIVIA         CLOUDY    30  27  86 N23G31    29.74S WCI  17
PIPESTONE      CLOUDY    27  25  93 N22G31    29.73R WCI  12
WINDOM         CLOUDY    28  16  59 N26G33    29.64F WCI  13
WORTHINGTON    HVY SNOW  27  26  96 N29G40    29.63F VSB 1/4 WCI  11
JACKSON        CLOUDY    28  27  93 N31       29.61F VSB 3/4 WCI  12
TRACY          CLOUDY    29  28  94 N22G28    29.73S WCI  15
SLAYTON        CLOUDY    27  26  95 N25G33    29.69F WCI  12
$$
MNZ065>067-074>077-082>085-091>093-222000-
   South Central Minnesota

CITY           SKY/WX    TMP DP  RH WIND       PRES   REMARKS
MANKATO        HVY SNOW  30  29  96 N20G29    29.64S VSB 1/4 WCI  17
NEW ULM        CLOUDY    28  27  93 N14G25    29.68R WCI  17
ST JAMES         N/A    N/A N/A N/A N24G31    29.66F
FAIRMONT       HVY SNOW  29  28  96 N26G35    29.58F VSB 1/4 WCI  14
FARIBAULT      SNOW      30  28  93 N16G25    29.62R VSB 1/4 WCI  19
OWATONNA       HVY SNOW  30  28  93 N20G29    29.59R VSB<1/4 WCI  18
WASECA         HVY SNOW  32  30  93 N25G37    29.60S VSB<1/4 WCI  19
ALBERT LEA     HVY SNOW N/A N/A N/A N16       29.54F VSB<1/4
$$
MNZ078>079-086>088-094>096-222000-
   Southeast Minnesota

CITY           SKY/WX    TMP DP  RH WIND       PRES   REMARKS
ROCHESTER      HVY SNOW  32  32 100 NE17      29.54S VSB 1/4 WCI  21
RED WING       MIX PCPN  32  28  86 NE7G18    29.60R VSB 1/4 WCI  26
STANTON        HVY SNOW  32  30  92 NE18      29.61R VSB 1/4 WCI  20
DODGE CENTER   SNOW      32  30  93 NE14      29.56R VSB 1/2 WCI  22
WINONA         LGT RAIN  34  32  93 CALM      29.56R
AUSTIN         SNOW      32  30  93 NE12      29.52F VSB 1/4 WCI  23
PRESTON        LGT SNOW  32  31  95 NE9       29.53S VSB 1   WCI  24
$$
ABBREVIATIONS USED IN REMARKS
   TC - TEMPERATURES IN CELSIUS
  WCI - WIND CHILL INDEX
   HX - HEAT INDEX
  VSB - VISIBILITY
$$




USA.gov is the U.S. government's official web portal to all federal, state and local government web resources and services.